Ely, NV

5:41 PM PST on January 22, 2017 (GMT -0800)
Ely

Weather History for KELY - July, 2013

Change the Weather History Date:

Saturday, July 6, 2013

  Actual Average Record
Temperature  
Mean Temperature 75 °F 67 °F  
Max Temperature 91 °F 87 °F 97 °F (2007)
Min Temperature 59 °F 47 °F 32 °F (1994)
Degree Days  
Heating Degree Days 0 1  
Month to date heating degree days 0 9  
Since 1 June heating degree days 95 184  
Since 1 July heating degree days 0 9  
Cooling Degree Days 10 3  
Month to date cooling degree days 61 15  
Year to date cooling degree days 118 39  
Since 1 June cooling degree days 118 38  
Growing Degree Days 26 (Base 50)    
Moisture  
Dew Point 40 °F    
Average Humidity 42    
Maximum Humidity 69    
Minimum Humidity 15    
Precipitation  
Precipitation T in 0.02 in 0.95 in (2006)
Month to date precipitation 0.01 0.08  
Year to date precipitation 3.12 5.18  
Snow  
Snow 0.00 in 0.00 in 0.00 in (1893)
Month to date snowfall 0.0 0.0  
Since 1 June snowfall 0.0 0.1  
Since 1 July snowfall 0.0 0.0  
Snow Depth 0.00 in    
Sea Level Pressure  
Sea Level Pressure 29.69 in    
Wind  
Wind Speed 14 mph (South)    
Max Wind Speed 36 mph    
Max Gust Speed 45 mph    
Visibility 10 miles    
Events Rain    
T = Trace of Precipitation, MM = Missing Value Source: NWS Daily Summary

Daily Weather History Graph

Daily Weather History Graph

Search for Another Location

Airport or City:

Trip Planner

Search our weather history database for the weather conditions in past years. The results will help you decide how hot, cold, wet, or windy it might be!

Date:

Astronomy

Jul. 06, 2013 Rise Set
Actual Time 5:19 AM PDT 8:08 PM PDT
Civil Twilight 4:47 AM PDT 8:40 PM PDT
Nautical Twilight 4:07 AM PDT 9:20 PM PDT
Astronomical Twilight 3:21 AM PDT 10:06 PM PDT
Moon 4:08 AM PDT (7/6) 6:53 PM PDT (7/6)
Length of Visible Light 15h 53m
Length of Day
14h 49m
Waning Crescent, 2% of the Moon is Illuminated
Jul 6
Waning Crescent
Jul 8
New
Jul 15
First Quarter
Jul 22
Full
Jul 29
Last Quarter

Hourly Weather History & Observations

Time (PDT) Temp. Dew Point Humidity Pressure Visibility Wind Dir Wind Speed Gust Speed Precip Events Conditions
12:53 AM 62.1 °F 54.0 °F 75% 29.75 in 10.0 mi South 6.9 mph - 0.00 in Rain Light Rain
1:53 AM 64.0 °F 51.1 °F 63% 29.68 in 10.0 mi South 8.1 mph - 0.00 in   Mostly Cloudy
2:53 AM 61.0 °F 50.0 °F 67% 29.73 in 10.0 mi South 12.7 mph - N/A   Clear
3:53 AM 61.0 °F 48.0 °F 62% 29.71 in 10.0 mi SSW 11.5 mph - N/A   Partly Cloudy
4:53 AM 61.0 °F 46.9 °F 60% 29.72 in 10.0 mi SSW 13.8 mph - N/A   Partly Cloudy
5:53 AM 64.0 °F 46.0 °F 52% 29.73 in 10.0 mi SSW 16.1 mph - N/A   Clear
6:53 AM 64.9 °F 46.9 °F 52% 29.75 in 10.0 mi South 15.0 mph - N/A   Partly Cloudy
7:53 AM 73.9 °F 46.9 °F 38% 29.72 in 10.0 mi SSW 13.8 mph 20.7 mph N/A   Clear
8:53 AM 78.1 °F 46.0 °F 32% 29.73 in 10.0 mi South 17.3 mph 23.0 mph N/A   Clear
9:53 AM 80.1 °F 42.1 °F 26% 29.72 in 10.0 mi SE 13.8 mph 25.3 mph N/A   Clear
10:53 AM 82.9 °F 37.9 °F 20% 29.72 in 10.0 mi SW 12.7 mph 23.0 mph N/A   Clear
11:53 AM 84.9 °F 37.0 °F 18% 29.71 in 10.0 mi SSE 12.7 mph 23.0 mph N/A   Partly Cloudy
12:53 PM 88.0 °F 36.0 °F 16% 29.69 in 10.0 mi SW 18.4 mph 32.2 mph N/A   Mostly Cloudy
1:53 PM 87.1 °F 36.0 °F 16% 29.66 in 10.0 mi South 20.7 mph 31.1 mph N/A   Scattered Clouds
2:53 PM 90.0 °F 35.1 °F 14% 29.64 in 10.0 mi South 16.1 mph 23.0 mph N/A   Partly Cloudy
3:10 PM 89.6 °F 35.6 °F 15% 29.98 in 10.0 mi SSW 10.4 mph 20.7 mph N/A   Clear
3:53 PM 87.1 °F 39.0 °F 18% 29.64 in 10.0 mi South 16.1 mph 26.5 mph N/A   Partly Cloudy
4:53 PM 89.1 °F 35.1 °F 15% 29.62 in 10.0 mi South 15.0 mph 21.9 mph N/A   Clear
5:53 PM 86.0 °F 34.0 °F 16% 29.61 in 10.0 mi South 18.4 mph 25.3 mph N/A   Clear
6:53 PM 86.0 °F 34.0 °F 16% 29.61 in 10.0 mi South 15.0 mph 25.3 mph N/A   Clear
7:53 PM 82.0 °F 33.1 °F 17% 29.62 in 10.0 mi SSW 13.8 mph - N/A   Clear
8:53 PM 82.0 °F 30.0 °F 15% 29.64 in 10.0 mi SW 13.8 mph 25.3 mph N/A   Clear
9:53 PM 80.1 °F 32.0 °F 17% 29.67 in 10.0 mi Variable 4.6 mph - N/A   Mostly Cloudy
10:53 PM 77.0 °F 33.1 °F 20% 29.67 in 10.0 mi SSE 15.0 mph - N/A   Partly Cloudy
11:53 PM 75.0 °F 34.0 °F 22% 29.67 in 10.0 mi SSW 8.1 mph - N/A   Clear